CW2236 Weather Reports


Display with metric or nautical units.
time (UTC)temp
F
wind
direction
speed
MPH
gust
MPH
rain 1hr
in
rain 24hr
in
rain mn
in
humidity
%
barometer
mb
20260505055603 50 212 15.0 21.0 0.00 0.00 0.00 80 1011.6
20260505054603 50 206 15.0 23.0 0.00 0.00 0.00 80 1011.7
20260505053603 50 196 15.0 21.0 0.00 0.00 0.00 79 1011.6
20260505052602 51 200 14.0 20.0 0.00 0.00 0.00 79 1011.7
20260505051624 51 204 15.0 21.0 0.00 0.00 0.00 78 1011.7
20260505050623 51 199 14.0 22.0 0.00 0.00 0.00 77 1011.8
20260505040602 52 204 16.0 24.0 0.00 0.00 0.00 73 1012.1
20260505035603 52 198 19.0 24.0 0.00 0.00 0.00 73 1011.9
20260505034602 52 198 17.0 28.0 0.00 0.00 0.00 72 1011.9
20260505033603 52 196 16.0 22.0 0.00 0.00 0.00 71 1011.8
20260505032602 53 193 17.0 25.0 0.00 0.00 0.00 70 1011.8
20260505031603 53 194 16.0 28.0 0.00 0.00 0.00 69 1011.8
20260505025624 53 201 17.0 26.0 0.00 0.00 0.00 68 1012.0
20260505024602 53 199 16.0 25.0 0.00 0.00 0.00 67 1012.0
20260505023603 54 199 16.0 23.0 0.00 0.00 0.00 66 1012.0
20260505022602 54 197 17.0 24.0 0.00 0.00 0.00 65 1011.9
20260505021603 54 203 16.0 24.0 0.00 0.00 0.00 63 1012.0
20260505015603 55 200 18.0 28.0 0.00 0.00 0.00 61 1011.9
20260505014603 55 194 15.0 23.0 0.00 0.00 0.00 60 1011.9
20260505013603 55 203 16.0 24.0 0.00 0.00 0.00 59 1011.6
20260505012623 56 203 16.0 22.0 0.00 0.00 0.00 57 1011.8
20260505011603 56 200 15.0 20.0 0.00 0.00 0.00 56 1011.5
20260505010602 56 201 15.0 23.0 0.00 0.00 0.00 55 1011.3
20260505005603 57 208 16.0 26.0 0.00 0.00 0.00 54 1011.3
20260505004602 57 208 17.0 24.0 0.00 0.00 0.00 53 1011.1
20260505003603 57 207 23.0 32.0 0.00 0.00 0.00 53 1010.8
20260505002603 57 201 19.0 33.0 0.00 0.00 0.00 53 1010.6
20260505001603 57 196 18.0 30.0 0.00 0.00 0.00 53 1010.5
20260504235602 59 189 19.0 33.0 0.00 0.00 0.00 51 1010.3
20260504234624 60 187 21.0 31.0 0.00 0.00 0.00 49 1010.0
20260504233623 61 182 19.0 30.0 0.00 0.00 0.00 47 1009.8
20260504232603 62 201 19.0 29.0 0.00 0.00 0.00 45 1009.7
20260504231602 62 207 20.0 36.0 0.00 0.00 0.00 44 1009.4
20260504230603 63 208 21.0 36.0 0.00 0.00 0.00 44 1009.0
20260504225623 63 209 21.0 30.0 0.00 0.00 0.00 43 1009.0
20260504224603 64 200 22.0 38.0 0.00 0.00 0.00 42 1008.8
20260504223602 65 207 21.0 34.0 0.00 0.00 0.00 41 1008.7
20260504221603 65 213 20.0 36.0 0.00 0.00 0.00 40 1008.7
20260504220602 66 215 21.0 34.0 0.00 0.00 0.00 38 1008.4
20260504215603 67 197 20.0 31.0 0.00 0.00 0.00 37 1008.5
20260504214602 68 205 22.0 33.0 0.00 0.00 0.00 36 1008.5
20260504213603 68 201 18.0 29.0 0.00 0.00 0.00 36 1008.6
20260504212603 68 193 16.0 31.0 0.00 0.00 0.00 35 1008.5
20260504211603 69 227 20.0 28.0 0.00 0.00 0.00 31 1008.6
20260504205603 70 207 13.0 27.0 0.00 0.00 0.00 30 1008.5
20260504204603 71 229 17.0 24.0 0.00 0.00 0.00 30 1008.4
20260504203603 70 233 13.0 27.0 0.00 0.00 0.00 30 1008.6
20260504202623 70 206 13.0 21.0 0.00 0.00 0.00 29 1008.5
20260504201603 70 234 17.0 29.0 0.00 0.00 0.00 29 1008.6
20260504200602 71 253 15.0 28.0 0.00 0.00 0.00 29 1008.6
20260504195603 70 227 18.0 30.0 0.00 0.00 0.00 29 1008.7
20260504194602 70 212 18.0 26.0 0.00 0.00 0.00 29 1008.7
20260504193603 70 217 19.0 31.0 0.00 0.00 0.00 29 1008.6
20260504192603 70 225 16.0 29.0 0.00 0.00 0.00 28 1008.7
20260504191603 70 227 23.0 34.0 0.00 0.00 0.00 28 1008.7
20260504190602 70 246 15.0 30.0 0.00 0.00 0.00 29 1008.7
20260504185603 70 231 22.0 34.0 0.00 0.00 0.00 28 1008.9
20260504184602 70 233 21.0 30.0 0.00 0.00 0.00 28 1008.9
20260504183603 69 228 16.0 37.0 0.00 0.00 0.00 29 1009.1
20260504182603 69 237 18.0 34.0 0.00 0.00 0.00 29 1009.1
20260504181603 69 257 17.0 27.0 0.00 0.00 0.00 29 1009.2
20260504175603 69 233 16.0 36.0 0.00 0.00 0.00 29 1009.4
20260504174603 69 251 16.0 35.0 0.00 0.00 0.00 29 1009.4
20260504173623 69 234 26.0 35.0 0.00 0.00 0.00 29 1009.4
20260504172602 68 239 17.0 34.0 0.00 0.00 0.00 29 1009.3
20260504171603 68 230 26.0 37.0 0.00 0.00 0.00 28 1009.4
20260504170602 68 226 16.0 39.0 0.00 0.00 0.00 30 1009.5
20260504150603 64 261 19.0 32.0 0.00 0.00 0.00 35 1010.9
20260504140624 62 252 15.0 25.0 0.00 0.00 0.00 38 1011.5
20260504130603 57 246 12.0 22.0 0.00 0.00 0.00 45 1012.1
20260504110603 48 230 13.0 18.0 0.00 0.00 0.00 52 1012.1
20260504100603 46 234 15.0 19.0 0.00 0.00 0.00 53 1012.0
20260504081623 46 239 12.0 16.0 0.00 0.00 0.00 51 1012.0
20260504080603 46 238 12.0 15.0 0.00 0.00 0.00 50 1012.0